CT7AGI-13 Weather Reports


Display with metric or nautical units.
time (UTC)temp
F
wind
direction
speed
MPH
gust
MPH
rain 1hr
in
rain 24hr
in
rain mn
in
humidity
%
barometer
mb
20260508122023 65 236 8.0 10.0 0.00 0.00 0.00 64 1008.8
20260508120527 66 213 5.0 10.0 0.00 0.00 0.00 65 1008.9
20260508115525 66 193 7.0 17.0 0.00 0.00 0.00 65 1009.1
20260508114544 66 203 7.0 14.0 0.00 0.00 0.00 64 1009.3
20260508113522 66 187 8.0 14.0 0.00 0.00 0.00 64 1009.3
20260508112520 65 169 7.0 13.0 0.00 0.00 0.00 67 1009.3
20260508111518 65 203 7.0 15.0 0.00 0.00 0.00 63 1009.4
20260508110536 66 205 5.0 9.0 0.00 0.00 0.00 60 1009.3
20260508105534 65 228 4.0 8.0 0.00 0.00 0.00 62 1009.4
20260508104533 65 199 7.0 14.0 0.00 0.00 0.00 63 1009.5
20260508103531 64 219 5.0 15.0 0.00 0.00 0.00 64 1009.5
20260508102529 64 207 5.0 13.0 0.00 0.00 0.00 63 1009.6
20260508101528 65 202 5.0 15.0 0.00 0.00 0.00 63 1009.5
20260508100525 64 218 5.0 11.0 0.00 0.00 0.00 65 1009.6
20260508095524 63 210 5.0 13.0 0.00 0.00 0.00 69 1009.6
20260508094522 63 204 4.0 9.0 0.00 0.00 0.00 68 1009.7
20260508093540 62 231 5.0 13.0 0.00 0.00 0.00 70 1009.8
20260508092519 61 215 3.0 9.0 0.00 0.00 0.00 72 1009.8
20260508091517 61 230 3.0 7.0 0.00 0.00 0.00 73 1010.0
20260508090535 61 173 5.0 10.0 0.00 0.00 0.00 73 1009.9
20260508085553 60 235 5.0 11.0 0.00 0.00 0.00 74 1010.0
20260508084551 60 192 3.0 8.0 0.00 0.00 0.00 76 1009.9
20260508083550 60 185 4.0 7.0 0.00 0.00 0.00 77 1009.9
20260508082548 59 197 4.0 7.0 0.00 0.00 0.00 79 1009.9
20260508081526 59 187 3.0 7.0 0.00 0.00 0.00 80 1010.0
20260508080524 58 207 3.0 6.0 0.00 0.00 0.00 82 1010.0
20260508075523 58 188 4.0 6.0 0.00 0.00 0.00 81 1009.9
20260508074521 58 207 2.0 4.0 0.00 0.00 0.00 81 1010.0
20260508073519 57 202 2.0 7.0 0.00 0.00 0.00 84 1009.9
20260508072517 56 240 2.0 3.0 0.00 0.00 0.00 86 1009.9
20260508071515 56 184 2.0 4.0 0.00 0.00 0.00 88 1009.8
20260508070533 56 208 2.0 4.0 0.00 0.00 0.00 89 1009.8
20260508065532 55 221 2.0 4.0 0.00 0.00 0.00 90 1009.7
20260508064530 55 244 0.0 2.0 0.00 0.00 0.00 90 1009.7
20260508063548 55 250 0.0 1.0 0.00 0.00 0.00 91 1009.7
20260508062526 54 231 1.0 2.0 0.00 0.00 0.00 91 1009.7
20260508061544 54 234 1.0 2.0 0.00 0.00 0.00 91 1009.6
20260508060523 54 232 1.0 2.0 0.00 0.00 0.00 92 1009.5
20260508055521 54 249 0.0 1.0 0.00 0.00 0.00 92 1009.4
20260508054519 54 243 0.0 2.0 0.00 0.00 0.00 92 1009.3
20260508053518 54 211 1.0 2.0 0.00 0.00 0.00 92 1009.2
20260508052535 54 229 1.0 2.0 0.00 0.00 0.00 93 1009.2
20260508051554 54 232 1.0 2.0 0.00 0.00 0.00 92 1009.1
20260508050532 54 238 0.0 2.0 0.00 0.00 0.00 92 1008.9
20260508045530 54 241 1.0 2.0 0.00 0.00 0.00 92 1008.8
20260508044549 54 235 1.0 3.0 0.00 0.00 0.00 91 1008.9
20260508043527 54 227 3.0 7.0 0.00 0.00 0.00 88 1009.0
20260508042525 56 234 1.0 6.0 0.00 0.00 0.00 82 1009.0
20260508041523 56 233 0.0 1.0 0.00 0.00 0.00 82 1009.0
20260508040521 56 236 0.0 1.0 0.00 0.00 0.00 81 1009.0
20260508035539 56 241 0.0 1.0 0.00 0.00 0.00 81 1009.1
20260508034517 56 243 0.0 2.0 0.00 0.00 0.00 82 1009.1
20260508033515 56 231 1.0 2.0 0.00 0.00 0.00 82 1009.2
20260508032534 56 231 1.0 2.0 0.00 0.00 0.00 82 1009.0
20260508031532 56 232 1.0 1.0 0.00 0.00 0.00 81 1009.1
20260508030530 56 236 0.0 1.0 0.00 0.00 0.00 81 1009.0
20260508025529 55 234 0.0 1.0 0.00 0.00 0.00 81 1009.1
20260508024527 56 242 0.0 1.0 0.00 0.00 0.00 81 1009.2
20260508023525 56 213 1.0 6.0 0.00 0.00 0.00 81 1009.4
20260508022523 56 234 1.0 2.0 0.00 0.00 0.00 82 1009.5
20260508021521 56 229 1.0 2.0 0.00 0.00 0.00 82 1009.5
20260508020539 55 234 1.0 2.0 0.00 0.00 0.00 82 1009.5
20260508015517 56 233 1.0 2.0 0.00 0.00 0.00 81 1009.7
20260508014516 56 234 0.0 1.0 0.00 0.00 0.00 81 1009.8
20260508013534 56 233 1.0 2.0 0.00 0.00 0.00 81 1009.8
20260508012532 56 229 0.0 1.0 0.00 0.00 0.00 81 1009.9
20260508011550 56 227 1.0 2.0 0.00 0.00 0.00 82 1010.2
20260508010548 56 235 1.0 6.0 0.00 0.00 0.00 82 1010.2
20260508005527 56 234 1.0 4.0 0.00 0.00 0.00 82 1010.4
20260508004525 56 240 0.0 1.0 0.00 0.00 0.00 82 1010.2
20260508003523 56 231 0.0 1.0 0.00 0.00 0.00 82 1010.3
20260508002541 56 233 1.0 4.0 0.00 0.00 0.00 82 1010.4
20260508001519 56 232 1.0 3.0 0.00 0.00 0.00 81 1010.4
20260508000518 56 242 1.0 2.0 0.00 0.00 0.00 80 1010.3
20260507235516 56 232 1.0 1.0 0.00 0.00 0.00 80 1010.4
20260507234534 56 234 0.0 1.0 0.00 0.00 0.00 80 1010.3
20260507233533 56 236 0.0 2.0 0.00 0.00 0.00 80 1010.6
20260507232530 57 231 2.0 3.0 0.00 0.00 0.00 80 1010.7
20260507231529 57 233 1.0 2.0 0.00 0.00 0.00 80 1010.5
20260507230527 57 232 1.0 2.0 0.00 0.00 0.00 79 1010.6
20260507225605 57 236 1.0 2.0 0.00 0.00 0.00 78 1010.6
20260507224523 58 237 0.0 1.0 0.00 0.00 0.00 76 1010.7
20260507223541 58 272 0.0 1.0 0.00 0.00 0.00 76 1010.7
20260507222519 58 275 0.0 1.0 0.00 0.00 0.00 76 1010.9
20260507221538 58 246 0.0 1.0 0.00 0.00 0.00 76 1011.0
20260507220516 58 287 1.0 2.0 0.00 0.00 0.00 76 1011.1
20260507215614 58 263 0.0 2.0 0.00 0.00 0.00 76 1011.2
20260507214532 59 252 0.0 2.0 0.00 0.00 0.00 75 1011.1
20260507213530 58 283 1.0 3.0 0.00 0.00 0.00 75 1011.2
20260507212529 59 290 1.0 4.0 0.00 0.00 0.00 74 1011.3
20260507211527 58 252 1.0 2.0 0.00 0.00 0.00 76 1011.4
20260507210525 58 238 1.0 3.0 0.00 0.00 0.00 76 1011.7
20260507205523 58 277 1.0 4.0 0.00 0.00 0.00 76 1011.5
20260507204521 59 284 1.0 3.0 0.00 0.00 0.00 75 1011.5
20260507203520 59 273 2.0 4.0 0.00 0.00 0.00 75 1011.4
20260507202518 59 311 2.0 4.0 0.00 0.00 0.00 75 1011.3
20260507201516 59 279 1.0 3.0 0.00 0.00 0.00 75 1011.2
20260507200534 59 310 2.0 4.0 0.00 0.00 0.00 75 1011.1
20260507195532 59 299 2.0 6.0 0.00 0.00 0.00 74 1011.0
20260507194530 59 310 3.0 7.0 0.00 0.00 0.00 72 1010.9
20260507193528 59 312 2.0 6.0 0.00 0.00 0.00 72 1011.0
20260507192527 59 299 3.0 8.0 0.00 0.00 0.00 71 1011.0
20260507191525 59 281 3.0 7.0 0.00 0.00 0.00 71 1010.9
20260507190543 60 308 3.0 8.0 0.00 0.00 0.00 69 1010.8
20260507185521 60 306 4.0 7.0 0.00 0.00 0.00 70 1010.6
20260507184519 60 293 2.0 6.0 0.00 0.00 0.00 69 1010.7
20260507183518 61 308 4.0 13.0 0.00 0.00 0.00 68 1010.6
20260507182516 61 306 2.0 6.0 0.00 0.00 0.00 68 1010.7
20260507181554 61 305 4.0 10.0 0.00 0.00 0.00 62 1010.7
20260507180612 61 296 2.0 8.0 0.00 0.00 0.00 67 1010.5
20260507175531 61 315 4.0 9.0 0.00 0.00 0.00 69 1010.6
20260507174529 62 276 3.0 10.0 0.00 0.00 0.00 68 1010.4
20260507173527 62 293 2.0 7.0 0.00 0.00 0.00 66 1010.5
20260507172525 63 322 2.0 7.0 0.00 0.00 0.00 64 1010.5
20260507171543 62 286 2.0 7.0 0.00 0.00 0.00 65 1010.5
20260507170521 64 304 3.0 9.0 0.00 0.00 0.00 64 1010.4
20260507165520 64 303 2.0 8.0 0.00 0.00 0.00 64 1010.5
20260507164518 64 304 2.0 7.0 0.00 0.00 0.00 67 1010.6
20260507163516 63 302 4.0 8.0 0.00 0.00 0.00 64 1010.5
20260507162535 63 302 3.0 11.0 0.00 0.00 0.00 67 1010.4
20260507161533 65 303 3.0 10.0 0.00 0.00 0.00 65 1010.5
20260507160531 63 304 4.0 11.0 0.00 0.00 0.00 66 1010.6
20260507155529 64 310 4.0 10.0 0.00 0.00 0.00 64 1010.5
20260507154527 65 290 2.0 8.0 0.00 0.00 0.00 62 1010.5
20260507153545 66 251 3.0 7.0 0.00 0.00 0.00 61 1010.4
20260507152523 65 292 3.0 8.0 0.00 0.00 0.00 64 1010.5
20260507151522 66 327 4.0 13.0 0.00 0.00 0.00 62 1010.6
20260507150521 64 281 3.0 10.0 0.00 0.00 0.00 64 1010.7
20260507145520 64 293 4.0 14.0 0.00 0.00 0.00 65 1010.7
20260507144536 64 305 4.0 11.0 0.00 0.00 0.00 65 1010.8
20260507143554 63 283 3.0 9.0 0.00 0.00 0.00 65 1010.9
20260507142532 65 314 5.0 11.0 0.00 0.00 0.00 65 1010.9
20260507141531 66 282 3.0 7.0 0.00 0.00 0.00 61 1010.9
20260507140550 65 276 4.0 10.0 0.00 0.00 0.00 63 1011.0
20260507135527 66 327 4.0 11.0 0.00 0.00 0.00 62 1011.0
20260507134547 67 317 3.0 10.0 0.00 0.00 0.00 62 1011.1
20260507133544 65 244 3.0 10.0 0.00 0.00 0.00 62 1011.1
20260507132523 66 303 3.0 11.0 0.00 0.00 0.00 63 1011.1
20260507131520 66 318 4.0 14.0 0.00 0.00 0.00 62 1011.1
20260507130518 66 311 4.0 9.0 0.00 0.00 0.00 64 1011.1
20260507125516 65 309 4.0 11.0 0.00 0.00 0.00 62 1011.2
20260507124534 65 297 5.0 13.0 0.00 0.00 0.00 64 1011.3
20260507123553 65 279 3.0 15.0 0.00 0.00 0.00 63 1011.3
20260507122551 63 283 4.0 10.0 0.00 0.00 0.00 66 1011.4